User: anonymous   Login
Location: Brno
(49.2000°N, 16.6330°E)
Time: 22:17:42
(UTC+02:00)
Language:

Meteor 1-4 Rocket - Orbit

View from above orbital plane
View from above orbital plane
View from above satellite
View from above satellite

Ground track
Ground track

The orbit data is extracted from the following two-line orbital elements,

1 04394U 70037B   15212.54151418  .00002342  00000-0  90455-4 0  9995
2 04394 081.2442 099.4616 0042865 305.4097 054.3136 15.24967778459995
Epoch (UTC): 31 July 2015 12:59:46
Eccentricity: 0.0042865
inclination: 81.2442°
perigee height: 461 km
apogee height: 520 km
right ascension of ascending node: 99.4616°
argument of perigee: 305.4097°
revolutions per day: 15.24967778
mean anomaly at epoch: 54.3136°
orbit number at epoch: 45999

The dashed part of the orbit path shows where the satellite is in the earth's shadow,  

DLR